Starlink 11502

operational
NORAD ID: 62474 Int'l Des: 2024-254 Owner: SPXS Country: US Constellation: starlink
LEOCIRCULAR

Über Starlink 11502

Beschreibung wird geladen...

Live-Position

3D-Globus wird geladen...

Nächste Überflüge

Höhenverlauf

Altitude vs Time

uPlot chart will show altitude changes over time

Zweizeiliger Elementsatz

1 62474U 24254N 25351.04280646 .00236658 00000-0 17860-2 0 9990
2 62474 42.9996 1.0917 0000964 240.6428 119.4343 15.70970176 56400
Epoch: 17. Dez. 2025 • Age: 12 hours

Aktueller Status

Höhe 363.9 km
Geschwindigkeit 7.69 km/s
Subsatellitenpunkt -32.73°S, 55.33°W
Startdatum 31. Dez. 2024
Alter 0.9 years
Typ internet

Technische Details

Klassifizierung Payload
Masse 960.00 kg
Trockenmasse 910.00 kg
Gesamtmasse 960.00 kg
Länge 0.30 m
Durchmesser 4.10 m
Spannweite 29.00 m
Form Box + pan
Hersteller SPXS
Bus-Typ Starlink V2MD
Phasenstatus In Orbit
Besitzer/Staat SPXS/US

Große Konstellationen

Loading constellations...